FFT297 KSAN-KLAS

Flight info

Callsign FFT297
Flight time N/A
Altitude 29000
Route PADRZ2 CHKNN SEBBY YELAH MISEN RNDRZ4
Aircraft A21N/M-SDE2E3FGHIRWXY/LB1

Departure

Time 2026-04-20 01:42
Airport San Diego International Airport (KSAN)

Arrival

Time N/A
Airport Harry Reid International Airport (KLAS)
Time Latitude Longitude Altitude Speed Heading
2026-04-20 01:02 32.73327 -117.19609 28 ft 0 kts 197°
2026-04-20 01:19 32.73337 -117.19605 28 ft 4 kts 194°
2026-04-20 01:20 32.73364 -117.19600 28 ft 4 kts 179°
2026-04-20 01:20 32.73390 -117.19605 28 ft 4 kts 156°
2026-04-20 01:20 32.73410 -117.19623 28 ft 4 kts 119°
2026-04-20 01:20 32.73414 -117.19634 28 ft 0 kts 106°
2026-04-20 01:26 32.73412 -117.19625 28 ft 3 kts 106°
2026-04-20 01:26 32.73402 -117.19583 28 ft 8 kts 105°
2026-04-20 01:26 32.73382 -117.19496 28 ft 14 kts 107°
2026-04-20 01:26 32.73350 -117.19364 28 ft 19 kts 104°
2026-04-20 01:27 32.73307 -117.19191 28 ft 24 kts 105°
2026-04-20 01:27 32.73257 -117.18976 28 ft 29 kts 105°
2026-04-20 01:27 32.73194 -117.18724 26 ft 34 kts 106°
2026-04-20 01:27 32.73122 -117.18436 28 ft 39 kts 103°
2026-04-20 01:28 32.73046 -117.18115 27 ft 41 kts 108°
2026-04-20 01:28 32.72970 -117.17809 28 ft 36 kts 104°
2026-04-20 01:28 32.72950 -117.17708 28 ft 0 kts 98°
2026-04-20 01:28 32.72950 -117.17707 28 ft 0 kts 97°
2026-04-20 01:30 32.72950 -117.17687 27 ft 2 kts 88°
2026-04-20 01:30 32.72966 -117.17637 27 ft 11 kts 57°
2026-04-20 01:30 32.73037 -117.17659 27 ft 17 kts 282°
2026-04-20 01:30 32.73046 -117.17695 27 ft 0 kts 291°
2026-04-20 01:31 32.73057 -117.17733 27 ft 25 kts 288°
2026-04-20 01:31 32.73172 -117.18197 28 ft 44 kts 289°
2026-04-20 01:31 32.73237 -117.18438 28 ft 32 kts 286°
2026-04-20 01:31 32.73295 -117.18709 28 ft 35 kts 285°
2026-04-20 01:32 32.73326 -117.18798 27 ft 4 kts 304°
2026-04-20 01:32 32.73380 -117.18823 27 ft 14 kts 24°
2026-04-20 01:32 32.73411 -117.18697 28 ft 22 kts 109°
2026-04-20 01:32 32.73346 -117.18497 28 ft 30 kts 108°
2026-04-20 01:33 32.73283 -117.18230 28 ft 37 kts 104°
2026-04-20 01:33 32.73213 -117.17907 28 ft 41 kts 107°
2026-04-20 01:33 32.73152 -117.17659 28 ft 28 kts 107°
2026-04-20 01:33 32.73124 -117.17569 28 ft 4 kts 116°
2026-04-20 01:34 32.73117 -117.17553 28 ft 2 kts 121°
2026-04-20 01:34 32.73102 -117.17544 27 ft 0 kts 168°
2026-04-20 01:37 32.73101 -117.17544 28 ft 1 kts 168°
2026-04-20 01:37 32.73100 -117.17544 28 ft 0 kts 168°
2026-04-20 01:39 32.73093 -117.17542 27 ft 0 kts 168°
2026-04-20 01:40 32.73073 -117.17538 27 ft 6 kts 170°
2026-04-20 01:41 32.73028 -117.17566 28 ft 11 kts 248°
2026-04-20 01:41 32.73050 -117.17705 28 ft 41 kts 286°
2026-04-20 01:41 32.73211 -117.18357 28 ft 124 kts 286°
2026-04-20 01:41 32.73521 -117.19683 116 ft 204 kts 284°
2026-04-20 01:42 32.73852 -117.21392 1487 ft 225 kts 279°
2026-04-20 01:42 32.74288 -117.23264 2865 ft 250 kts 297°
2026-04-20 01:42 32.75374 -117.25010 4258 ft 276 kts 308°
2026-04-20 01:42 32.76659 -117.26861 5662 ft 304 kts 306°
2026-04-20 01:43 32.78005 -117.28953 7119 ft 332 kts 304°
2026-04-20 01:43 32.79417 -117.31278 8657 ft 361 kts 304°
2026-04-20 01:43 32.80993 -117.33709 10190 ft 382 kts 307°
2026-04-20 01:43 32.82696 -117.36256 11390 ft 404 kts 307°
2026-04-20 01:44 32.84444 -117.38904 12545 ft 409 kts 307°
2026-04-20 01:44 32.86198 -117.41595 13793 ft 416 kts 306°
2026-04-20 01:44 32.87979 -117.44356 14946 ft 423 kts 306°
2026-04-20 01:44 32.89785 -117.47159 16147 ft 430 kts 306°
2026-04-20 01:45 32.91620 -117.50003 17400 ft 435 kts 306°
2026-04-20 01:45 32.93479 -117.52881 18510 ft 443 kts 306°
2026-04-20 01:45 32.95350 -117.55810 19201 ft 447 kts 305°
2026-04-20 01:45 32.97235 -117.58764 19596 ft 448 kts 306°
2026-04-20 01:46 32.99131 -117.61731 19802 ft 451 kts 306°
2026-04-20 01:46 33.01036 -117.64711 19938 ft 454 kts 306°
2026-04-20 01:46 33.02936 -117.67686 20004 ft 461 kts 306°
2026-04-20 01:46 33.04902 -117.70768 20014 ft 470 kts 306°
2026-04-20 01:47 33.07089 -117.73731 20001 ft 482 kts 315°
2026-04-20 01:47 33.09840 -117.76090 20053 ft 494 kts 331°
2026-04-20 01:47 33.12947 -117.77849 20349 ft 496 kts 333°
2026-04-20 01:47 33.16017 -117.79834 20327 ft 506 kts 327°
2026-04-20 01:48 33.18871 -117.82376 20166 ft 524 kts 316°
2026-04-20 01:48 33.21355 -117.85653 19645 ft 537 kts 305°